VOE3CK LEBL-LEMI

Flight info

Callsign VOE3CK
Flight time 0h 56m
Altitude 29000
Route LOTOS DCT TORDU DCT DIKUT DCT SOPET DCT VLC L34 ALT
Aircraft A319/M-SDFGIJ1RWY/LB1

Departure

Time 2026-05-05 19:28
Airport Josep Tarradellas Barcelona-El Prat Airport (LEBL)

Arrival

Time 2026-05-05 20:24
Airport Region of Murcia International Airport (LEMI)
Time Latitude Longitude Altitude Speed Heading
2026-05-05 18:59 41.28713 2.07701 19 ft 0 kts 338°
2026-05-05 19:17 41.28701 2.07708 18 ft 4 kts 339°
2026-05-05 19:17 41.28676 2.07719 18 ft 4 kts 343°
2026-05-05 19:17 41.28650 2.07728 19 ft 4 kts 348°
2026-05-05 19:17 41.28623 2.07734 18 ft 4 kts 358°
2026-05-05 19:18 41.28622 2.07734 18 ft 0 kts 359°
2026-05-05 19:21 41.28644 2.07743 20 ft 6 kts 30°
2026-05-05 19:21 41.28671 2.07799 18 ft 6 kts 66°
2026-05-05 19:21 41.28673 2.07839 18 ft 3 kts 95°
2026-05-05 19:21 41.28666 2.07875 18 ft 3 kts 106°
2026-05-05 19:22 41.28662 2.07893 18 ft 3 kts 102°
2026-05-05 19:22 41.28663 2.07937 18 ft 6 kts 69°
2026-05-05 19:22 41.28694 2.08005 18 ft 11 kts 65°
2026-05-05 19:22 41.28732 2.08116 18 ft 15 kts 65°
2026-05-05 19:23 41.28753 2.08198 18 ft 6 kts 92°
2026-05-05 19:23 41.28715 2.08241 18 ft 10 kts 152°
2026-05-05 19:23 41.28724 2.08328 19 ft 13 kts 58°
2026-05-05 19:23 41.28767 2.08455 19 ft 17 kts 66°
2026-05-05 19:24 41.28823 2.08617 19 ft 19 kts 65°
2026-05-05 19:24 41.28870 2.08751 19 ft 14 kts 65°
2026-05-05 19:24 41.28907 2.08858 20 ft 14 kts 65°
2026-05-05 19:24 41.28954 2.08998 18 ft 19 kts 67°
2026-05-05 19:25 41.29011 2.09168 18 ft 19 kts 65°
2026-05-05 19:25 41.29058 2.09305 18 ft 14 kts 65°
2026-05-05 19:25 41.29102 2.09431 18 ft 17 kts 65°
2026-05-05 19:25 41.29160 2.09599 18 ft 22 kts 65°
2026-05-05 19:26 41.29226 2.09791 18 ft 21 kts 65°
2026-05-05 19:26 41.29277 2.09928 18 ft 14 kts 54°
2026-05-05 19:26 41.29317 2.10018 18 ft 9 kts 66°
2026-05-05 19:26 41.29311 2.10128 18 ft 17 kts 112°
2026-05-05 19:27 41.29268 2.10275 15 ft 15 kts 120°
2026-05-05 19:27 41.29203 2.10284 15 ft 7 kts 237°
2026-05-05 19:27 41.29192 2.10238 14 ft 3 kts 245°
2026-05-05 19:27 41.29189 2.10230 15 ft 0 kts 242°
2026-05-05 19:28 41.29088 2.09936 16 ft 75 kts 246°
2026-05-05 19:28 41.28777 2.09032 17 ft 140 kts 245°
2026-05-05 19:28 41.28338 2.07753 453 ft 154 kts 244°
2026-05-05 19:28 41.27784 2.06538 1139 ft 159 kts 222°
2026-05-05 19:29 41.26694 2.06146 1781 ft 172 kts 184°
2026-05-05 19:29 41.25427 2.06128 2201 ft 193 kts 186°
2026-05-05 19:29 41.23998 2.06061 2584 ft 217 kts 186°
2026-05-05 19:29 41.22460 2.05975 3392 ft 222 kts 186°
2026-05-05 19:30 41.20891 2.05630 3974 ft 240 kts 206°
2026-05-05 19:30 41.19553 2.04228 4540 ft 254 kts 234°
2026-05-05 19:30 41.18460 2.02346 5454 ft 260 kts 234°
2026-05-05 19:30 41.17316 2.00456 6432 ft 265 kts 233°
2026-05-05 19:31 41.16143 1.98553 7393 ft 267 kts 233°
2026-05-05 19:31 41.14958 1.96640 8400 ft 269 kts 233°
2026-05-05 19:31 41.13764 1.94716 9412 ft 271 kts 233°
2026-05-05 19:31 41.12555 1.92766 10215 ft 281 kts 233°
2026-05-05 19:32 41.11268 1.90681 10604 ft 302 kts 233°
2026-05-05 19:32 41.09924 1.88491 11346 ft 309 kts 233°
2026-05-05 19:32 41.08560 1.86269 12208 ft 313 kts 232°
2026-05-05 19:32 41.07178 1.84023 13053 ft 316 kts 232°
2026-05-05 19:33 41.05780 1.81750 13877 ft 320 kts 232°
2026-05-05 19:33 41.04368 1.79454 14621 ft 323 kts 232°
2026-05-05 19:33 41.02947 1.77145 15374 ft 325 kts 232°
2026-05-05 19:33 41.01511 1.74815 16133 ft 328 kts 232°
2026-05-05 19:34 41.00065 1.72466 16880 ft 330 kts 232°
2026-05-05 19:34 40.98604 1.70101 17638 ft 333 kts 232°
2026-05-05 19:34 40.97129 1.67721 18350 ft 336 kts 232°
2026-05-05 19:35 40.94162 1.62940 19780 ft 336 kts 232°
2026-05-05 19:35 40.92685 1.60556 20557 ft 334 kts 232°
2026-05-05 19:35 40.91214 1.58181 21327 ft 333 kts 232°
2026-05-05 19:35 40.89751 1.55820 22056 ft 332 kts 233°
2026-05-05 19:36 40.88294 1.53474 22838 ft 329 kts 233°
2026-05-05 19:36 40.86842 1.51137 23578 ft 329 kts 234°
2026-05-05 19:36 40.85389 1.48800 24114 ft 330 kts 234°
2026-05-05 19:36 40.83927 1.46449 24608 ft 332 kts 234°
2026-05-05 19:37 40.82458 1.44090 25073 ft 334 kts 234°
2026-05-05 19:37 40.80976 1.41707 25532 ft 337 kts 234°
2026-05-05 19:37 40.79484 1.39315 25983 ft 339 kts 233°
2026-05-05 19:37 40.77978 1.36904 26425 ft 342 kts 233°
2026-05-05 19:38 40.76461 1.34479 26863 ft 344 kts 233°
2026-05-05 19:38 40.74929 1.32034 27288 ft 347 kts 233°
2026-05-05 19:38 40.73387 1.29576 27702 ft 349 kts 233°
2026-05-05 19:38 40.71834 1.27097 28142 ft 352 kts 233°
2026-05-05 19:39 40.70271 1.24599 28557 ft 355 kts 233°
2026-05-05 19:39 40.68694 1.22083 28887 ft 357 kts 233°
2026-05-05 19:39 40.67148 1.19624 28936 ft 345 kts 233°
2026-05-05 19:39 40.65645 1.17245 28939 ft 331 kts 233°
2026-05-05 19:40 40.64185 1.14933 28937 ft 326 kts 233°
2026-05-05 19:40 40.61313 1.10366 28939 ft 323 kts 234°
2026-05-05 19:41 40.58453 1.05817 28945 ft 322 kts 234°
2026-05-05 19:41 40.55591 1.01281 28945 ft 322 kts 234°
2026-05-05 19:42 40.52638 0.96836 28945 ft 323 kts 232°
2026-05-05 19:42 40.49575 0.92511 28943 ft 323 kts 231°
2026-05-05 19:43 40.46506 0.88192 28910 ft 324 kts 231°
2026-05-05 19:43 40.43424 0.83820 28927 ft 327 kts 231°
2026-05-05 19:44 40.40331 0.79427 28930 ft 327 kts 232°
2026-05-05 19:44 40.37242 0.75040 28948 ft 328 kts 232°
2026-05-05 19:45 40.34147 0.70645 28947 ft 328 kts 232°
2026-05-05 19:45 40.31046 0.66256 28946 ft 328 kts 232°
2026-05-05 19:46 40.27965 0.61897 28943 ft 328 kts 232°
2026-05-05 19:46 40.24859 0.57506 28888 ft 329 kts 232°
2026-05-05 19:47 40.21716 0.53082 28941 ft 333 kts 232°
2026-05-05 19:47 40.18541 0.48604 28950 ft 333 kts 232°
2026-05-05 19:48 40.15379 0.44165 28960 ft 333 kts 231°
2026-05-05 19:48 40.12245 0.39766 28963 ft 333 kts 232°
2026-05-05 19:49 40.09090 0.35336 28963 ft 333 kts 232°
2026-05-05 19:49 40.05924 0.30907 28948 ft 334 kts 232°
2026-05-05 19:50 40.02747 0.26484 28894 ft 334 kts 231°
2026-05-05 19:50 39.99563 0.22035 28926 ft 336 kts 231°
2026-05-05 19:51 39.96374 0.17581 28937 ft 336 kts 231°
2026-05-05 19:51 39.93181 0.13134 28937 ft 336 kts 231°
2026-05-05 19:52 39.89985 0.08696 28940 ft 336 kts 231°
2026-05-05 19:52 39.86790 0.04266 28935 ft 335 kts 231°
2026-05-05 19:53 39.83594 -0.00157 28940 ft 335 kts 231°
2026-05-05 19:53 39.80399 -0.04593 28896 ft 336 kts 231°
2026-05-05 19:54 39.77199 -0.09023 28911 ft 336 kts 231°
2026-05-05 19:54 39.73998 -0.13446 28910 ft 336 kts 231°
2026-05-05 19:55 39.70786 -0.17864 28902 ft 336 kts 231°
2026-05-05 19:55 39.67580 -0.22275 28904 ft 336 kts 231°
2026-05-05 19:56 39.64398 -0.26657 28904 ft 336 kts 231°
2026-05-05 19:56 39.61190 -0.31057 28907 ft 336 kts 231°
2026-05-05 19:57 39.57976 -0.35448 28907 ft 336 kts 231°
2026-05-05 19:57 39.54764 -0.39830 28899 ft 335 kts 231°
2026-05-05 19:58 39.51561 -0.44202 28905 ft 334 kts 231°
2026-05-05 19:58 39.47719 -0.47716 28908 ft 351 kts 209°
2026-05-05 19:58 39.45322 -0.48525 28908 ft 364 kts 196°
2026-05-05 19:59 39.42771 -0.48750 28907 ft 369 kts 193°
2026-05-05 19:59 39.37644 -0.49101 28905 ft 369 kts 193°
2026-05-05 19:59 39.35082 -0.49279 28776 ft 367 kts 193°
2026-05-05 20:00 39.32541 -0.49458 28231 ft 365 kts 192°
2026-05-05 20:00 39.30015 -0.49639 27725 ft 362 kts 192°
2026-05-05 20:00 39.27511 -0.49821 27256 ft 360 kts 192°
2026-05-05 20:00 39.25017 -0.50004 26805 ft 358 kts 192°
2026-05-05 20:01 39.22535 -0.50184 26347 ft 356 kts 192°
2026-05-05 20:01 39.20068 -0.50364 25886 ft 354 kts 192°
2026-05-05 20:01 39.17615 -0.50544 25434 ft 352 kts 192°
2026-05-05 20:01 39.15171 -0.50724 24982 ft 350 kts 192°
2026-05-05 20:02 39.12745 -0.50900 24541 ft 349 kts 192°
2026-05-05 20:02 39.10328 -0.51072 24077 ft 347 kts 191°
2026-05-05 20:02 39.07929 -0.51243 23638 ft 344 kts 190°
2026-05-05 20:02 39.05544 -0.51413 23163 ft 342 kts 190°
2026-05-05 20:03 39.03172 -0.51583 22668 ft 340 kts 190°
2026-05-05 20:03 39.00815 -0.51754 22196 ft 338 kts 190°
2026-05-05 20:03 38.98472 -0.51922 21722 ft 336 kts 190°
2026-05-05 20:03 38.96143 -0.52088 21270 ft 334 kts 190°
2026-05-05 20:04 38.93828 -0.52252 20828 ft 332 kts 190°
2026-05-05 20:04 38.92303 -0.52359 20543 ft 331 kts 190°
2026-05-05 20:04 38.90011 -0.52522 20105 ft 329 kts 190°
2026-05-05 20:04 38.87730 -0.52686 19658 ft 327 kts 189°
2026-05-05 20:05 38.85463 -0.52850 19245 ft 326 kts 190°
2026-05-05 20:05 38.83203 -0.53013 18839 ft 324 kts 189°
2026-05-05 20:05 38.80234 -0.53224 18330 ft 322 kts 189°
2026-05-05 20:05 38.78721 -0.53332 18047 ft 321 kts 189°
2026-05-05 20:06 38.76497 -0.53491 17626 ft 319 kts 189°
2026-05-05 20:06 38.74282 -0.53651 17213 ft 318 kts 189°
2026-05-05 20:06 38.72084 -0.53809 16819 ft 316 kts 189°
2026-05-05 20:06 38.69889 -0.53966 16378 ft 315 kts 189°
2026-05-05 20:07 38.67702 -0.54122 15998 ft 314 kts 190°
2026-05-05 20:07 38.65528 -0.54278 15571 ft 312 kts 189°
2026-05-05 20:07 38.63366 -0.54432 15243 ft 310 kts 189°
2026-05-05 20:07 38.61222 -0.54581 14900 ft 308 kts 189°
2026-05-05 20:08 38.59091 -0.54730 14552 ft 306 kts 189°
2026-05-05 20:08 38.56965 -0.54881 14214 ft 305 kts 189°
2026-05-05 20:08 38.54852 -0.55030 13870 ft 303 kts 189°
2026-05-05 20:08 38.52747 -0.55177 13521 ft 303 kts 189°
2026-05-05 20:09 38.50649 -0.55325 13147 ft 301 kts 189°
2026-05-05 20:09 38.48560 -0.55473 12755 ft 300 kts 189°
2026-05-05 20:09 38.46476 -0.55621 12343 ft 299 kts 188°
2026-05-05 20:09 38.44401 -0.55770 11946 ft 299 kts 188°
2026-05-05 20:10 38.42327 -0.55918 11546 ft 298 kts 188°
2026-05-05 20:10 38.40258 -0.56064 11145 ft 297 kts 187°
2026-05-05 20:10 38.38196 -0.56209 10806 ft 297 kts 187°
2026-05-05 20:10 38.36127 -0.56356 10587 ft 298 kts 187°
2026-05-05 20:11 38.34080 -0.56500 10367 ft 291 kts 187°
2026-05-05 20:11 38.32085 -0.56638 10147 ft 284 kts 187°
2026-05-05 20:11 38.30152 -0.56773 9928 ft 271 kts 187°
2026-05-05 20:11 38.28367 -0.57163 9748 ft 251 kts 202°
2026-05-05 20:12 38.26830 -0.58085 9564 ft 239 kts 217°
2026-05-05 20:12 38.25581 -0.59415 9389 ft 232 kts 231°
2026-05-05 20:12 38.24618 -0.61040 9197 ft 230 kts 238°
2026-05-05 20:12 38.23704 -0.62706 9015 ft 229 kts 237°
2026-05-05 20:13 38.22755 -0.64336 8834 ft 230 kts 231°
2026-05-05 20:13 38.21565 -0.65707 8653 ft 232 kts 218°
2026-05-05 20:13 38.20169 -0.66707 8477 ft 235 kts 206°
2026-05-05 20:13 38.18585 -0.67349 8284 ft 237 kts 199°
2026-05-05 20:14 38.17022 -0.67914 8111 ft 237 kts 199°
2026-05-05 20:14 38.15464 -0.68562 7942 ft 235 kts 207°
2026-05-05 20:14 38.14058 -0.69577 7747 ft 231 kts 219°
2026-05-05 20:14 38.12863 -0.70917 7584 ft 229 kts 229°
2026-05-05 20:15 38.11743 -0.72356 7412 ft 229 kts 229°
2026-05-05 20:15 38.10620 -0.73786 7223 ft 229 kts 228°
2026-05-05 20:15 38.09498 -0.75211 7001 ft 228 kts 229°
2026-05-05 20:15 38.08380 -0.76631 6777 ft 228 kts 228°
2026-05-05 20:16 38.07159 -0.77936 6559 ft 229 kts 223°
2026-05-05 20:16 38.05976 -0.79283 6342 ft 228 kts 227°
2026-05-05 20:16 38.04858 -0.80707 6112 ft 227 kts 229°
2026-05-05 20:16 38.03768 -0.82128 5882 ft 222 kts 229°
2026-05-05 20:17 38.02701 -0.83515 5648 ft 217 kts 229°
2026-05-05 20:17 38.01654 -0.84876 5425 ft 215 kts 229°
2026-05-05 20:17 38.00616 -0.86224 5204 ft 212 kts 228°
2026-05-05 20:17 37.99592 -0.87553 4977 ft 209 kts 228°
2026-05-05 20:18 37.98587 -0.88856 4788 ft 203 kts 228°
2026-05-05 20:18 37.97619 -0.90112 4560 ft 196 kts 228°
2026-05-05 20:18 37.96682 -0.91326 4324 ft 190 kts 228°
2026-05-05 20:18 37.95772 -0.92506 4095 ft 185 kts 227°
2026-05-05 20:19 37.94900 -0.93634 3989 ft 174 kts 230°
2026-05-05 20:19 37.94091 -0.94681 3992 ft 159 kts 229°
2026-05-05 20:19 37.93344 -0.95647 3919 ft 149 kts 230°
2026-05-05 20:19 37.92631 -0.96571 3767 ft 146 kts 230°
2026-05-05 20:20 37.91922 -0.97490 3585 ft 145 kts 228°
2026-05-05 20:20 37.91218 -0.98401 3417 ft 145 kts 228°
2026-05-05 20:20 37.90517 -0.99308 3233 ft 144 kts 227°
2026-05-05 20:20 37.89817 -1.00212 3048 ft 143 kts 228°
2026-05-05 20:21 37.89122 -1.01110 2855 ft 142 kts 227°
2026-05-05 20:21 37.88430 -1.02004 2675 ft 142 kts 226°
2026-05-05 20:21 37.87741 -1.02894 2493 ft 141 kts 226°
2026-05-05 20:21 37.87071 -1.03759 2303 ft 132 kts 226°
2026-05-05 20:22 37.86442 -1.04570 2138 ft 128 kts 227°
2026-05-05 20:22 37.85819 -1.05374 1972 ft 127 kts 226°
2026-05-05 20:22 37.85207 -1.06164 1804 ft 124 kts 226°
2026-05-05 20:22 37.84603 -1.06943 1645 ft 124 kts 226°
2026-05-05 20:23 37.84001 -1.07720 1464 ft 124 kts 226°
2026-05-05 20:23 37.83397 -1.08499 1302 ft 124 kts 225°
2026-05-05 20:23 37.82788 -1.09282 1121 ft 125 kts 227°
2026-05-05 20:23 37.82187 -1.10066 997 ft 124 kts 226°
2026-05-05 20:24 37.81580 -1.10850 775 ft 125 kts 225°
2026-05-05 20:24 37.80980 -1.11622 656 ft 116 kts 225°
2026-05-05 20:24 37.80508 -1.12230 641 ft 74 kts 225°
2026-05-05 20:24 37.80268 -1.12542 639 ft 39 kts 226°
2026-05-05 20:25 37.80110 -1.12742 642 ft 28 kts 225°
2026-05-05 20:25 37.79995 -1.12899 639 ft 21 kts 232°
2026-05-05 20:25 37.79932 -1.13035 642 ft 18 kts 246°
2026-05-05 20:25 37.79898 -1.13188 641 ft 14 kts 263°
2026-05-05 20:26 37.79945 -1.13255 641 ft 11 kts
2026-05-05 20:26 37.80016 -1.13175 641 ft 16 kts 46°
2026-05-05 20:26 37.80092 -1.13087 641 ft 11 kts 21°
2026-05-05 20:26 37.80151 -1.13120 641 ft 11 kts 315°
2026-05-05 20:27 37.80219 -1.13157 641 ft 10 kts 21°
2026-05-05 20:27 37.80261 -1.13110 641 ft 6 kts 48°
2026-05-05 20:27 37.80283 -1.13080 641 ft 5 kts 46°
2026-05-05 20:27 37.80321 -1.13031 641 ft 9 kts 45°
2026-05-05 20:28 37.80356 -1.13001 641 ft 3 kts
2026-05-05 20:28 37.80362 -1.13008 641 ft 0 kts 317°
2026-05-05 20:28 37.80371 -1.13018 643 ft 3 kts 315°
2026-05-05 20:28 37.80389 -1.13041 641 ft 4 kts 316°
2026-05-05 20:29 37.80399 -1.13053 641 ft 0 kts 315°
2026-05-05 20:29 37.80406 -1.13062 641 ft 0 kts 316°